{"data":{"norad_id":65409,"epoch":"2026-05-24T16:11:17.964672Z","epoch_age_seconds":106254,"freshness":"FRESH","line1":"1 65409U 25192F   26144.67451348  .00023076  00000+0  75265-3 0  9993","line2":"2 65409  53.1576 239.0014 0001097  84.2997 275.8129 15.31717786 41025","mean_motion":15.31717786,"eccentricity":0.0001097,"inclination_deg":53.1576,"raan_deg":239.0014,"arg_perigee_deg":84.2997,"mean_anomaly_deg":275.8129,"bstar":0.00075265,"rev_number":4102,"period_min":94.012096298789,"perigee_km":469.93566060796,"apogee_km":471.43829258843,"semimajor_km":6848.8239765982,"source":"CELESTRAK","updated_at":"2026-05-25T13:38:20.800299Z"}}